Time,TemperatureF,DewpointF,PressureIn,WindDirection,WindDirectionDegrees,WindSpeedMPH,WindSpeedGustMPH,Humidity,HourlyPrecipIn,Conditions,Clouds,dailyrainin,SoftwareType,DateUTC
2013-08-01 00:01:00,69.8,29.3,0.00,SSE,153,0.0,0.0,22,0.00,,---,0.00,VWS V14.01,2013-08-01 04:01:00,
2013-08-01 00:04:00,69.8,29.3,0.00,SSE,153,0.0,0.0,22,0.00,,---,0.00,VWS V14.01,2013-08-01 04:04:00,
2013-08-01 00:06:00,69.6,29.1,0.00,SSE,153,0.0,0.0,22,0.00,,---,0.00,VWS V14.01,2013-08-01 04:06:00,
2013-08-01 00:09:00,69.6,29.1,0.00,SSE,153,0.0,0.0,22,0.00,,---,0.00,VWS V14.01,2013-08-01 04:09:00,
2013-08-01 00:14:00,69.4,29.0,0.00,SSE,153,0.0,0.0,22,0.00,,---,0.00,VWS V14.01,2013-08-01 04:14:00,
2013-08-01 00:19:00,69.3,28.8,0.00,SSE,153,0.0,0.0,22,0.00,,---,0.00,VWS V14.01,2013-08-01 04:19:00,
2013-08-01 00:25:00,69.1,29.8,0.00,SSE,153,0.0,0.0,23,0.00,,---,0.00,VWS V14.01,2013-08-01 04:25:00,
2013-08-01 00:31:00,68.9,29.6,0.00,SSE,153,0.0,0.0,23,0.00,,---,0.00,VWS V14.01,2013-08-01 04:31:00,
2013-08-01 00:36:00,68.7,29.5,0.00,SSE,153,0.0,0.0,23,0.00,,---,0.00,VWS V14.01,2013-08-01 04:36:00,
2013-08-01 00:42:00,68.5,30.4,0.00,SSE,153,0.0,0.0,24,0.00,,---,0.00,VWS V14.01,2013-08-01 04:42:00,
2013-08-01 00:48:00,68.5,30.4,0.00,SSE,153,0.0,0.0,24,0.00,,---,0.00,VWS V14.01,2013-08-01 04:48:00,
2013-08-01 00:53:00,68.4,30.2,0.00,SSE,153,0.0,0.0,24,0.00,,---,0.00,VWS V14.01,2013-08-01 04:53:00,
2013-08-01 00:58:00,68.4,30.2,0.00,SSE,153,0.0,0.0,24,0.00,,---,0.00,VWS V14.01,2013-08-01 04:58:00,
2013-08-01 01:04:00,68.4,31.2,0.00,SSE,153,0.0,0.0,25,0.00,,---,0.00,VWS V14.01,2013-08-01 05:04:00,
2013-08-01 01:10:00,68.4,31.2,0.00,SSE,153,0.0,0.0,25,0.00,,---,0.00,VWS V14.01,2013-08-01 05:10:00,
2013-08-01 01:17:00,68.2,32.0,0.00,SSE,153,0.0,0.0,26,0.00,,---,0.00,VWS V14.01,2013-08-01 05:17:00,
2013-08-01 01:22:00,68.2,32.0,0.00,SSE,153,0.0,0.0,26,0.00,,---,0.00,VWS V14.01,2013-08-01 05:22:00,
2013-08-01 01:28:00,68.0,32.8,0.00,SSE,153,0.0,0.0,27,0.00,,---,0.00,VWS V14.01,2013-08-01 05:28:00,
2013-08-01 01:34:00,68.0,32.8,0.00,SSE,153,0.0,0.0,27,0.00,,---,0.00,VWS V14.01,2013-08-01 05:34:00,
2013-08-01 01:39:00,68.0,33.7,0.00,SSE,153,0.0,0.0,28,0.00,,---,0.00,VWS V14.01,2013-08-01 05:39:00,
2013-08-01 01:45:00,68.0,33.7,0.00,SSE,153,0.0,0.0,28,0.00,,---,0.00,VWS V14.01,2013-08-01 05:45:00,
2013-08-01 01:50:00,68.0,34.6,0.00,SSE,153,0.0,0.0,29,0.00,,---,0.00,VWS V14.01,2013-08-01 05:50:00,
2013-08-01 01:56:00,68.0,34.6,0.00,SSE,153,0.0,0.0,29,0.00,,---,0.00,VWS V14.01,2013-08-01 05:56:00,
2013-08-01 02:01:00,68.0,35.4,0.00,SSE,153,0.0,0.0,30,0.00,,---,0.00,VWS V14.01,2013-08-01 06:01:00,
2013-08-01 02:07:00,68.0,35.4,0.00,SSE,153,0.0,0.0,30,0.00,,---,0.00,VWS V14.01,2013-08-01 06:07:00,
2013-08-01 02:13:00,68.2,35.6,0.00,SSE,153,0.0,0.0,30,0.00,,---,0.00,VWS V14.01,2013-08-01 06:13:00,
2013-08-01 02:18:00,68.2,36.4,0.00,SSE,153,0.0,0.0,31,0.00,,---,0.00,VWS V14.01,2013-08-01 06:18:00,
2013-08-01 02:24:00,68.2,37.2,0.00,SSE,153,0.0,0.0,32,0.00,,---,0.00,VWS V14.01,2013-08-01 06:24:00,
2013-08-01 02:29:00,68.2,37.2,0.00,SSE,153,0.0,0.0,32,0.00,,---,0.00,VWS V14.01,2013-08-01 06:29:00,
2013-08-01 02:34:00,68.0,37.1,0.00,SSE,153,0.0,0.0,32,0.00,,---,0.00,VWS V14.01,2013-08-01 06:34:00,
2013-08-01 02:40:00,68.0,37.1,0.00,SSE,153,0.0,0.0,32,0.00,,---,0.00,VWS V14.01,2013-08-01 06:40:00,
2013-08-01 02:45:00,68.0,37.1,0.00,SSE,153,0.0,0.0,32,0.00,,---,0.00,VWS V14.01,2013-08-01 06:45:00,
2013-08-01 02:51:00,68.2,37.2,0.00,SSE,153,0.0,0.0,32,0.00,,---,0.00,VWS V14.01,2013-08-01 06:51:00,
2013-08-01 02:57:00,68.2,37.2,0.00,SSE,153,0.0,0.0,32,0.00,,---,0.00,VWS V14.01,2013-08-01 06:57:00,
2013-08-01 03:02:00,68.2,37.2,0.00,SSE,153,0.0,0.0,32,0.00,,---,0.00,VWS V14.01,2013-08-01 07:02:00,
2013-08-01 03:08:00,68.0,37.1,0.00,SSE,153,0.0,0.0,32,0.00,,---,0.00,VWS V14.01,2013-08-01 07:08:00,
2013-08-01 03:13:00,68.0,37.8,0.00,SSE,153,0.0,0.0,33,0.00,,---,0.00,VWS V14.01,2013-08-01 07:13:00,
2013-08-01 03:19:00,67.8,37.7,0.00,SSE,153,0.0,0.0,33,0.00,,---,0.00,VWS V14.01,2013-08-01 07:19:00,
2013-08-01 03:24:00,67.8,37.7,0.00,SSE,153,0.0,0.0,33,0.00,,---,0.00,VWS V14.01,2013-08-01 07:24:00,
2013-08-01 03:30:00,68.0,37.8,0.00,SSE,153,0.0,0.0,33,0.00,,---,0.00,VWS V14.01,2013-08-01 07:30:00,
2013-08-01 03:36:00,68.0,38.6,0.00,SSE,153,0.0,0.0,34,0.00,,---,0.00,VWS V14.01,2013-08-01 07:36:00,
2013-08-01 03:41:00,68.2,38.8,0.00,SSE,153,0.0,0.0,34,0.00,,---,0.00,VWS V14.01,2013-08-01 07:41:00,
2013-08-01 03:47:00,68.2,38.8,0.00,SSE,153,0.0,0.0,34,0.00,,---,0.00,VWS V14.01,2013-08-01 07:47:00,
2013-08-01 03:54:00,68.2,39.5,0.00,SSE,153,0.0,0.0,35,0.00,,---,0.00,VWS V14.01,2013-08-01 07:54:00,
2013-08-01 03:59:00,68.0,39.3,0.00,SSE,153,0.0,0.0,35,0.00,,---,0.00,VWS V14.01,2013-08-01 07:59:00,
2013-08-01 04:08:00,68.0,39.3,0.00,SSE,153,0.0,0.0,35,0.00,,---,0.00,VWS V14.01,2013-08-01 08:08:00,
2013-08-01 04:14:00,68.0,39.3,0.00,SSE,153,0.0,0.0,35,0.00,,---,0.00,VWS V14.01,2013-08-01 08:14:00,
2013-08-01 04:19:00,68.0,39.3,0.00,SSE,153,0.0,0.0,35,0.00,,---,0.00,VWS V14.01,2013-08-01 08:19:00,
2013-08-01 04:24:00,68.2,40.2,0.00,SSE,153,0.0,0.0,36,0.00,,---,0.00,VWS V14.01,2013-08-01 08:24:00,
2013-08-01 04:30:00,68.2,40.2,0.00,SSE,153,0.0,0.0,36,0.00,,---,0.00,VWS V14.01,2013-08-01 08:30:00,
2013-08-01 04:37:00,68.2,40.2,0.00,SSE,153,0.0,0.0,36,0.00,,---,0.00,VWS V14.01,2013-08-01 08:37:00,
2013-08-01 04:43:00,68.2,40.2,0.00,SSE,153,0.0,0.0,36,0.00,,---,0.00,VWS V14.01,2013-08-01 08:43:00,
2013-08-01 04:48:00,68.4,40.4,0.00,SSE,153,0.0,0.0,36,0.00,,---,0.00,VWS V14.01,2013-08-01 08:48:00,
2013-08-01 04:54:00,68.4,40.4,0.00,SSE,153,0.0,0.0,36,0.00,,---,0.00,VWS V14.01,2013-08-01 08:54:00,
2013-08-01 05:00:00,68.4,40.4,0.00,SSE,153,0.0,0.0,36,0.00,,---,0.00,VWS V14.01,2013-08-01 09:00:00,
2013-08-01 05:05:00,68.4,40.4,0.00,SSE,153,0.0,0.0,36,0.00,,---,0.00,VWS V14.01,2013-08-01 09:05:00,
2013-08-01 05:14:00,68.5,40.5,0.00,SSE,153,0.0,0.0,36,0.00,,---,0.00,VWS V14.01,2013-08-01 09:14:00,
2013-08-01 05:19:00,68.5,40.5,0.00,SSE,153,0.0,0.0,36,0.00,,---,0.00,VWS V14.01,2013-08-01 09:19:00,
2013-08-01 05:28:00,68.5,40.5,0.00,SSE,153,0.0,0.0,36,0.00,,---,0.00,VWS V14.01,2013-08-01 09:28:00,
2013-08-01 05:33:00,68.5,40.5,0.00,SSE,153,0.0,0.0,36,0.00,,---,0.00,VWS V14.01,2013-08-01 09:33:00,
2013-08-01 05:40:00,68.4,40.4,0.00,SSE,153,0.0,0.0,36,0.00,,---,0.00,VWS V14.01,2013-08-01 09:40:00,
2013-08-01 05:50:00,68.4,40.4,0.00,SSE,153,0.0,0.0,36,0.00,,---,0.00,VWS V14.01,2013-08-01 09:50:00,
2013-08-01 05:57:00,68.4,40.4,0.00,SSE,153,0.0,0.0,36,0.00,,---,0.00,VWS V14.01,2013-08-01 09:57:00,
2013-08-01 06:03:00,68.4,40.4,0.00,SSE,153,0.0,0.0,36,0.00,,---,0.00,VWS V14.01,2013-08-01 10:03:00,
2013-08-01 06:08:00,68.4,40.4,0.00,SSE,153,0.0,0.0,36,0.00,,---,0.00,VWS V14.01,2013-08-01 10:08:00,
2013-08-01 06:13:00,68.2,40.9,0.00,SSE,153,0.0,0.0,37,0.00,,---,0.00,VWS V14.01,2013-08-01 10:13:00,
2013-08-01 06:18:00,68.2,40.9,0.00,SSE,153,0.0,0.0,37,0.00,,---,0.00,VWS V14.01,2013-08-01 10:18:00,
2013-08-01 06:23:00,68.4,41.1,0.00,SSE,153,0.0,0.0,37,0.00,,---,0.00,VWS V14.01,2013-08-01 10:23:00,
2013-08-01 06:31:00,68.7,41.4,0.00,SSE,153,0.0,0.0,37,0.00,,---,0.00,VWS V14.01,2013-08-01 10:31:00,
2013-08-01 06:38:00,69.6,42.9,0.00,SSE,153,0.0,0.0,38,0.00,,---,0.00,VWS V14.01,2013-08-01 10:38:00,
2013-08-01 06:45:00,70.2,42.7,0.00,SSE,153,0.0,0.0,37,0.00,,---,0.00,VWS V14.01,2013-08-01 10:45:00,
2013-08-01 06:50:00,70.5,42.3,0.00,SSE,153,0.0,0.0,36,0.00,,---,0.00,VWS V14.01,2013-08-01 10:50:00,
2013-08-01 06:57:00,70.9,42.6,0.00,SSE,153,0.0,0.0,36,0.00,,---,0.00,VWS V14.01,2013-08-01 10:57:00,
2013-08-01 07:03:00,71.1,42.0,0.00,SSE,153,0.0,0.0,35,0.00,,---,0.00,VWS V14.01,2013-08-01 11:03:00,
2013-08-01 07:09:00,71.1,41.3,0.00,SSE,153,0.0,0.0,34,0.00,,---,0.00,VWS V14.01,2013-08-01 11:09:00,
2013-08-01 07:14:00,71.2,41.5,0.00,SSE,153,0.0,0.0,34,0.00,,---,0.00,VWS V14.01,2013-08-01 11:14:00,
2013-08-01 07:20:00,71.4,41.6,0.00,SSE,153,0.0,0.0,34,0.00,,---,0.00,VWS V14.01,2013-08-01 11:20:00,
2013-08-01 07:27:00,71.6,41.0,0.00,SSE,153,0.0,0.0,33,0.00,,---,0.00,VWS V14.01,2013-08-01 11:27:00,
2013-08-01 07:32:00,71.8,40.4,0.00,SSE,153,0.0,0.0,32,0.00,,---,0.00,VWS V14.01,2013-08-01 11:32:00,
2013-08-01 07:39:00,72.0,40.5,0.00,SSE,153,0.0,0.0,32,0.00,,---,0.00,VWS V14.01,2013-08-01 11:39:00,
2013-08-01 07:44:00,72.0,39.7,0.00,SSE,153,0.0,0.0,31,0.00,,---,0.00,VWS V14.01,2013-08-01 11:44:00,
2013-08-01 07:49:00,72.0,39.7,0.00,SSE,153,0.0,0.0,31,0.00,,---,0.00,VWS V14.01,2013-08-01 11:49:00,
2013-08-01 07:55:00,72.5,40.2,0.00,SSE,153,0.0,0.0,31,0.00,,---,0.00,VWS V14.01,2013-08-01 11:55:00,
2013-08-01 08:03:00,74.7,39.4,0.00,SSE,153,0.0,0.0,28,0.00,,---,0.00,VWS V14.01,2013-08-01 12:03:00,
2013-08-01 08:09:00,75.6,34.1,0.00,SSE,160,0.0,0.0,22,0.00,,---,0.00,VWS V14.01,2013-08-01 12:09:00,
2013-08-01 08:14:00,75.9,33.2,0.00,SSE,160,0.0,0.0,21,0.00,,---,0.00,VWS V14.01,2013-08-01 12:14:00,
2013-08-01 08:21:00,76.5,33.7,0.00,SSE,160,0.0,0.0,21,0.00,,---,0.00,VWS V14.01,2013-08-01 12:21:00,
2013-08-01 08:27:00,77.4,33.2,0.00,SSE,160,0.0,0.0,20,0.00,,---,0.00,VWS V14.01,2013-08-01 12:27:00,
2013-08-01 08:32:00,77.5,30.7,0.00,East,84,0.0,0.0,18,0.00,,---,0.00,VWS V14.01,2013-08-01 12:32:00,
2013-08-01 08:38:00,77.7,30.9,0.00,ENE,58,0.0,0.0,18,0.00,,---,0.00,VWS V14.01,2013-08-01 12:38:00,
2013-08-01 08:44:00,77.7,30.9,0.00,NE,36,0.0,0.0,18,0.00,,---,0.00,VWS V14.01,2013-08-01 12:44:00,
2013-08-01 08:49:00,78.1,31.2,0.00,NE,46,0.0,0.0,18,0.00,,---,0.00,VWS V14.01,2013-08-01 12:49:00,
2013-08-01 08:55:00,77.7,30.9,0.00,SE,128,0.0,0.0,18,0.00,,---,0.00,VWS V14.01,2013-08-01 12:55:00,
2013-08-01 09:00:00,77.0,30.3,0.00,SE,129,0.0,0.0,18,0.00,,---,0.00,VWS V14.01,2013-08-01 13:00:00,
2013-08-01 09:09:00,76.6,30.0,0.00,SE,128,0.0,0.0,18,0.00,,---,0.00,VWS V14.01,2013-08-01 13:09:00,
2013-08-01 09:14:00,76.5,29.9,0.00,ESE,112,0.0,3.1,18,0.00,,---,0.00,VWS V14.01,2013-08-01 13:14:00,
2013-08-01 09:19:00,76.3,29.7,0.00,ESE,107,0.0,0.0,18,0.00,,---,0.00,VWS V14.01,2013-08-01 13:19:00,
2013-08-01 09:27:00,76.5,29.9,0.00,SSE,164,0.0,0.0,18,0.00,,---,0.00,VWS V14.01,2013-08-01 13:27:00,
2013-08-01 09:32:00,77.2,30.4,0.00,East,99,0.0,0.0,18,0.00,,---,0.00,VWS V14.01,2013-08-01 13:32:00,
2013-08-01 09:38:00,77.9,31.0,0.00,SE,129,0.0,0.0,18,0.00,,---,0.00,VWS V14.01,2013-08-01 13:38:00,
2013-08-01 09:44:00,77.5,30.7,0.00,SSW,210,0.0,0.0,18,0.00,,---,0.00,VWS V14.01,2013-08-01 13:44:00,
2013-08-01 09:49:00,77.2,30.4,0.00,South,178,0.0,0.0,18,0.00,,---,0.00,VWS V14.01,2013-08-01 13:49:00,
2013-08-01 09:55:00,76.8,32.8,0.00,SE,130,0.0,0.0,20,0.00,,---,0.00,VWS V14.01,2013-08-01 13:55:00,
2013-08-01 10:04:00,76.8,34.0,0.00,SSW,208,0.0,2.2,21,0.00,,---,0.00,VWS V14.01,2013-08-01 14:04:00,
2013-08-01 10:11:00,76.8,34.0,0.00,South,177,0.0,0.0,21,0.00,,---,0.00,VWS V14.01,2013-08-01 14:11:00,
2013-08-01 10:16:00,76.3,33.5,0.00,NE,36,0.0,0.0,21,0.00,,---,0.00,VWS V14.01,2013-08-01 14:16:00,
2013-08-01 10:22:00,75.9,33.2,0.00,SE,135,0.0,2.7,21,0.00,,---,0.00,VWS V14.01,2013-08-01 14:22:00,
2013-08-01 10:28:00,75.7,33.1,0.00,SSW,212,2.2,2.7,21,0.00,,---,0.00,VWS V14.01,2013-08-01 14:28:00,
2013-08-01 10:34:00,75.4,33.9,0.00,ESE,115,0.0,3.1,22,0.00,,---,0.00,VWS V14.01,2013-08-01 14:34:00,
2013-08-01 10:42:00,74.5,33.2,0.00,South,175,0.0,0.0,22,0.00,,---,0.00,VWS V14.01,2013-08-01 14:42:00,
2013-08-01 10:48:00,73.9,33.8,0.00,ESE,108,0.0,0.0,23,0.00,,---,0.00,VWS V14.01,2013-08-01 14:48:00,
2013-08-01 10:54:00,73.4,33.4,0.00,ESE,116,0.0,0.0,23,0.00,,---,0.00,VWS V14.01,2013-08-01 14:54:00,
2013-08-01 10:59:00,72.9,34.0,0.00,SSE,156,3.1,3.6,24,0.00,,---,0.00,VWS V14.01,2013-08-01 14:59:00,
2013-08-01 11:05:00,72.1,32.3,0.00,NNE,18,0.0,0.0,23,0.00,,---,0.00,VWS V14.01,2013-08-01 15:05:00,
2013-08-01 11:12:00,71.6,32.9,0.00,ESE,118,0.0,0.0,24,0.00,,---,0.00,VWS V14.01,2013-08-01 15:12:00,
2013-08-01 11:18:00,71.2,32.6,0.00,SSE,162,0.0,0.0,24,0.00,,---,0.00,VWS V14.01,2013-08-01 15:18:00,
2013-08-01 11:23:00,70.7,33.2,0.00,SSE,166,0.0,0.0,25,0.00,,---,0.00,VWS V14.01,2013-08-01 15:23:00,
2013-08-01 11:30:00,69.8,34.3,0.00,South,184,0.0,0.0,27,0.00,,---,0.00,VWS V14.01,2013-08-01 15:30:00,
2013-08-01 11:35:00,69.4,36.7,0.00,SSE,162,0.0,0.0,30,0.00,,---,0.00,VWS V14.01,2013-08-01 15:35:00,
2013-08-01 11:41:00,69.4,38.3,0.00,SE,143,0.0,0.0,32,0.00,,---,0.00,VWS V14.01,2013-08-01 15:41:00,
2013-08-01 11:47:00,69.8,39.4,0.00,SE,143,0.0,0.0,33,0.00,,---,0.00,VWS V14.01,2013-08-01 15:47:00,
2013-08-01 11:52:00,70.2,39.7,0.00,SE,142,0.0,0.0,33,0.04,,---,0.04,VWS V14.01,2013-08-01 15:52:00,
2013-08-01 12:00:00,70.2,40.5,0.00,ESE,122,0.0,0.0,34,0.04,,---,0.04,VWS V14.01,2013-08-01 16:00:00,
2013-08-01 12:06:00,70.2,41.3,0.00,ESE,117,0.0,0.0,35,0.04,,---,0.04,VWS V14.01,2013-08-01 16:06:00,
2013-08-01 12:12:00,70.0,41.1,0.00,ESE,117,0.0,0.0,35,0.08,,---,0.08,VWS V14.01,2013-08-01 16:12:00,
2013-08-01 12:19:00,70.0,41.8,0.00,ESE,117,0.0,0.0,36,0.08,,---,0.08,VWS V14.01,2013-08-01 16:19:00,
2013-08-01 12:28:00,70.0,42.5,0.00,North,4,0.0,0.0,37,0.08,,---,0.08,VWS V14.01,2013-08-01 16:28:00,
2013-08-01 12:33:00,70.0,42.5,0.00,North,3,0.0,0.0,37,0.08,,---,0.08,VWS V14.01,2013-08-01 16:33:00,
2013-08-01 12:39:00,69.8,43.1,0.00,North,4,0.0,0.0,38,0.08,,---,0.08,VWS V14.01,2013-08-01 16:39:00,
2013-08-01 12:44:00,69.8,43.1,0.00,North,4,0.0,0.0,38,0.08,,---,0.08,VWS V14.01,2013-08-01 16:44:00,
2013-08-01 12:51:00,69.8,43.1,0.00,North,4,0.0,0.0,38,0.04,,---,0.08,VWS V14.01,2013-08-01 16:51:00,
2013-08-01 12:57:00,69.8,43.1,0.00,NNE,23,0.0,0.0,38,0.04,,---,0.08,VWS V14.01,2013-08-01 16:57:00,
2013-08-01 13:03:00,69.8,43.1,0.00,NNE,21,0.0,0.0,38,0.08,,---,0.12,VWS V14.01,2013-08-01 17:03:00,
2013-08-01 13:08:00,69.8,43.1,0.00,NNE,21,0.0,0.0,38,0.08,,---,0.12,VWS V14.01,2013-08-01 17:08:00,
2013-08-01 13:14:00,69.8,43.1,0.00,NNE,21,0.0,0.0,38,0.08,,---,0.16,VWS V14.01,2013-08-01 17:14:00,
2013-08-01 13:24:00,69.8,43.1,0.00,NNE,21,0.0,0.0,38,0.08,,---,0.16,VWS V14.01,2013-08-01 17:24:00,
2013-08-01 13:29:00,69.8,43.1,0.00,NNE,21,0.0,0.0,38,0.08,,---,0.16,VWS V14.01,2013-08-01 17:29:00,
2013-08-01 13:34:00,69.8,43.1,0.00,NNE,21,0.0,0.0,38,0.08,,---,0.16,VWS V14.01,2013-08-01 17:34:00,
2013-08-01 13:39:00,69.8,43.1,0.00,NNE,21,0.0,0.0,38,0.08,,---,0.16,VWS V14.01,2013-08-01 17:39:00,
2013-08-01 13:51:00,69.8,43.1,0.00,NNE,21,0.0,0.0,38,0.08,,---,0.16,VWS V14.01,2013-08-01 17:51:00,
2013-08-01 14:02:00,69.8,43.1,0.00,NNE,21,0.0,0.0,38,0.04,,---,0.16,VWS V14.01,2013-08-01 18:02:00,
2013-08-01 14:07:00,69.8,43.1,0.00,NNE,21,0.0,0.0,38,0.04,,---,0.16,VWS V14.01,2013-08-01 18:07:00,
2013-08-01 14:13:00,69.8,43.1,0.00,NNE,21,0.0,0.0,38,0.00,,---,0.16,VWS V14.01,2013-08-01 18:13:00,
2013-08-01 14:18:00,69.8,43.1,0.00,NNE,21,0.0,0.0,38,0.00,,---,0.16,VWS V14.01,2013-08-01 18:18:00,
2013-08-01 14:25:00,69.8,43.1,0.00,NNE,21,0.0,0.0,38,0.00,,---,0.16,VWS V14.01,2013-08-01 18:25:00,
2013-08-01 14:33:00,69.8,43.1,0.00,NNE,21,0.0,0.0,38,0.00,,---,0.16,VWS V14.01,2013-08-01 18:33:00,
2013-08-01 14:39:00,69.8,43.1,0.00,NNE,21,0.0,0.0,38,0.00,,---,0.16,VWS V14.01,2013-08-01 18:39:00,
2013-08-01 14:45:00,69.8,43.1,0.00,NNE,21,0.0,0.0,38,0.00,,---,0.16,VWS V14.01,2013-08-01 18:45:00,
2013-08-01 14:51:00,69.8,43.1,0.00,NNE,21,0.0,0.0,38,0.00,,---,0.16,VWS V14.01,2013-08-01 18:51:00,
2013-08-01 14:58:00,69.8,43.1,0.00,NNE,21,0.0,0.0,38,0.00,,---,0.16,VWS V14.01,2013-08-01 18:58:00,
2013-08-01 15:04:00,69.8,43.1,0.00,NNE,21,0.0,0.0,38,0.00,,---,0.16,VWS V14.01,2013-08-01 19:04:00,
2013-08-01 15:10:00,69.8,43.1,0.00,NNE,21,0.0,0.0,38,0.00,,---,0.16,VWS V14.01,2013-08-01 19:10:00,
2013-08-01 15:15:00,69.8,43.1,0.00,NNE,21,0.0,0.0,38,0.00,,---,0.16,VWS V14.01,2013-08-01 19:15:00,
2013-08-01 15:23:00,69.8,43.1,0.00,NNE,21,0.0,0.0,38,0.00,,---,0.16,VWS V14.01,2013-08-01 19:23:00,
2013-08-01 15:28:00,69.8,43.1,0.00,NNW,346,0.0,0.0,38,0.00,,---,0.16,VWS V14.01,2013-08-01 19:28:00,
2013-08-01 15:35:00,69.8,43.1,0.00,NE,52,0.0,0.0,38,0.00,,---,0.16,VWS V14.01,2013-08-01 19:35:00,
2013-08-01 15:45:00,69.8,43.1,0.00,ENE,77,0.0,0.0,38,0.04,,---,0.20,VWS V14.01,2013-08-01 19:45:00,
2013-08-01 15:54:00,69.8,43.1,0.00,ENE,77,0.0,0.0,38,0.16,,---,0.31,VWS V14.01,2013-08-01 19:54:00,
2013-08-01 15:59:00,69.8,43.1,0.00,ENE,69,0.0,0.0,38,0.20,,---,0.35,VWS V14.01,2013-08-01 19:59:00,
2013-08-01 16:08:00,69.8,43.1,0.00,NNE,26,0.0,0.0,38,0.20,,---,0.35,VWS V14.01,2013-08-01 20:08:00,
2013-08-01 16:14:00,69.8,43.1,0.00,NNE,26,0.0,0.0,38,0.20,,---,0.35,VWS V14.01,2013-08-01 20:14:00,
2013-08-01 16:20:00,69.8,43.1,0.00,NNE,26,0.0,0.0,38,0.20,,---,0.35,VWS V14.01,2013-08-01 20:20:00,
2013-08-01 16:25:00,69.8,43.1,0.00,NNE,26,0.0,0.0,38,0.20,,---,0.35,VWS V14.01,2013-08-01 20:25:00,
2013-08-01 16:30:00,69.8,43.1,0.00,NNE,26,0.0,0.0,38,0.20,,---,0.35,VWS V14.01,2013-08-01 20:30:00,
2013-08-01 16:37:00,69.8,43.1,0.00,NNE,26,0.0,0.0,38,0.20,,---,0.35,VWS V14.01,2013-08-01 20:37:00,
2013-08-01 16:42:00,69.8,43.1,0.00,NNE,26,0.0,0.0,38,0.20,,---,0.35,VWS V14.01,2013-08-01 20:42:00,
2013-08-01 16:48:00,69.8,43.1,0.00,NNE,26,0.0,0.0,38,0.16,,---,0.35,VWS V14.01,2013-08-01 20:48:00,
2013-08-01 16:54:00,69.8,43.1,0.00,NNE,26,0.0,0.0,38,0.12,,---,0.35,VWS V14.01,2013-08-01 20:54:00,
2013-08-01 16:59:00,69.8,43.1,0.00,NNE,26,0.0,0.0,38,0.00,,---,0.35,VWS V14.01,2013-08-01 20:59:00,
2013-08-01 17:04:00,69.8,43.1,0.00,NNE,26,0.0,0.0,38,0.00,,---,0.35,VWS V14.01,2013-08-01 21:04:00,
2013-08-01 17:09:00,69.8,43.1,0.00,WNW,282,0.0,0.0,38,0.00,,---,0.35,VWS V14.01,2013-08-01 21:09:00,
2013-08-01 17:14:00,69.8,43.1,0.00,NE,38,0.0,0.0,38,0.00,,---,0.35,VWS V14.01,2013-08-01 21:14:00,
2013-08-01 17:20:00,69.8,43.1,0.00,NE,38,0.0,0.0,38,0.00,,---,0.35,VWS V14.01,2013-08-01 21:20:00,
2013-08-01 17:30:00,69.8,43.1,0.00,NE,38,0.0,0.0,38,0.00,,---,0.35,VWS V14.01,2013-08-01 21:30:00,
2013-08-01 17:37:00,69.8,43.1,0.00,NE,38,0.0,0.0,38,0.00,,---,0.35,VWS V14.01,2013-08-01 21:37:00,
2013-08-01 17:43:00,69.8,43.1,0.00,NE,38,0.0,0.0,38,0.00,,---,0.35,VWS V14.01,2013-08-01 21:43:00,
2013-08-01 17:48:00,69.8,43.1,0.00,NE,38,0.0,0.0,38,0.00,,---,0.35,VWS V14.01,2013-08-01 21:48:00,
2013-08-01 17:54:00,69.8,43.1,0.00,NE,38,0.0,0.0,38,0.00,,---,0.35,VWS V14.01,2013-08-01 21:54:00,
2013-08-01 17:59:00,69.8,43.1,0.00,NE,38,0.0,0.0,38,0.00,,---,0.35,VWS V14.01,2013-08-01 21:59:00,
2013-08-01 18:05:00,69.8,43.1,0.00,NE,38,0.0,0.0,38,0.04,,---,0.39,VWS V14.01,2013-08-01 22:05:00,
2013-08-01 18:13:00,69.8,43.1,0.00,NE,38,0.0,0.0,38,0.04,,---,0.39,VWS V14.01,2013-08-01 22:13:00,
2013-08-01 18:19:00,69.8,43.1,0.00,NE,38,0.0,0.0,38,0.04,,---,0.39,VWS V14.01,2013-08-01 22:19:00,
2013-08-01 18:25:00,69.8,43.1,0.00,NE,38,0.0,0.0,38,0.04,,---,0.39,VWS V14.01,2013-08-01 22:25:00,
2013-08-01 18:31:00,69.8,43.1,0.00,NE,38,0.0,0.0,38,0.04,,---,0.39,VWS V14.01,2013-08-01 22:31:00,
2013-08-01 18:37:00,69.8,43.1,0.00,NE,38,0.0,0.0,38,0.04,,---,0.39,VWS V14.01,2013-08-01 22:37:00,
2013-08-01 18:43:00,69.8,43.1,0.00,NE,38,0.0,0.0,38,0.04,,---,0.39,VWS V14.01,2013-08-01 22:43:00,
2013-08-01 18:48:00,69.8,43.1,0.00,NE,38,0.0,0.0,38,0.04,,---,0.39,VWS V14.01,2013-08-01 22:48:00,
2013-08-01 18:53:00,69.8,43.1,0.00,NE,38,0.0,0.0,38,0.04,,---,0.39,VWS V14.01,2013-08-01 22:53:00,
2013-08-01 18:58:00,69.8,43.1,0.00,NE,38,0.0,0.0,38,0.04,,---,0.39,VWS V14.01,2013-08-01 22:58:00,
2013-08-01 19:03:00,69.8,43.1,0.00,NE,38,0.0,0.0,38,0.00,,---,0.39,VWS V14.01,2013-08-01 23:03:00,
2013-08-01 19:08:00,69.8,43.1,0.00,NE,38,0.0,0.0,38,0.00,,---,0.39,VWS V14.01,2013-08-01 23:08:00,
2013-08-01 19:15:00,69.8,43.1,0.00,NE,38,0.0,0.0,38,0.00,,---,0.39,VWS V14.01,2013-08-01 23:15:00,
2013-08-01 19:21:00,69.8,43.1,0.00,NE,38,0.0,0.0,38,0.00,,---,0.39,VWS V14.01,2013-08-01 23:21:00,
2013-08-01 19:28:00,69.8,43.1,0.00,NE,38,0.0,0.0,38,0.04,,---,0.43,VWS V14.01,2013-08-01 23:28:00,
2013-08-01 19:34:00,69.8,43.1,0.00,NE,38,0.0,0.0,38,0.04,,---,0.43,VWS V14.01,2013-08-01 23:34:00,
2013-08-01 19:40:00,69.8,43.1,0.00,NE,38,0.0,0.0,38,0.04,,---,0.43,VWS V14.01,2013-08-01 23:40:00,
2013-08-01 19:45:00,69.8,43.1,0.00,North,3,0.0,0.0,38,0.04,,---,0.43,VWS V14.01,2013-08-01 23:45:00,
2013-08-01 19:52:00,69.8,43.1,0.00,North,3,0.0,0.0,38,0.04,,---,0.43,VWS V14.01,2013-08-01 23:52:00,
2013-08-01 19:58:00,69.8,43.1,0.00,North,3,0.0,0.0,38,0.04,,---,0.43,VWS V14.01,2013-08-01 23:58:00,
2013-08-01 20:03:00,69.8,43.1,0.00,North,3,0.0,0.0,38,0.04,,---,0.43,VWS V14.01,2013-08-02 00:03:00,
2013-08-01 20:09:00,69.8,43.1,0.00,North,3,0.0,0.0,38,0.04,,---,0.43,VWS V14.01,2013-08-02 00:09:00,
2013-08-01 20:15:00,69.8,43.1,0.00,North,3,0.0,0.0,38,0.04,,---,0.43,VWS V14.01,2013-08-02 00:15:00,
2013-08-01 20:20:00,69.8,43.1,0.00,North,3,0.0,0.0,38,0.04,,---,0.43,VWS V14.01,2013-08-02 00:20:00,
2013-08-01 20:27:00,69.8,43.1,0.00,North,3,0.0,0.0,38,0.04,,---,0.43,VWS V14.01,2013-08-02 00:27:00,
2013-08-01 20:32:00,69.8,43.1,0.00,North,3,0.0,0.0,38,0.00,,---,0.43,VWS V14.01,2013-08-02 00:32:00,
2013-08-01 20:37:00,69.8,43.1,0.00,North,3,0.0,0.0,38,0.00,,---,0.43,VWS V14.01,2013-08-02 00:37:00,
2013-08-01 20:43:00,69.8,43.1,0.00,North,3,0.0,0.0,38,0.00,,---,0.43,VWS V14.01,2013-08-02 00:43:00,
2013-08-01 20:48:00,69.8,43.1,0.00,North,3,0.0,0.0,38,0.00,,---,0.43,VWS V14.01,2013-08-02 00:48:00,
2013-08-01 20:54:00,69.8,43.1,0.00,North,3,0.0,0.0,38,0.00,,---,0.43,VWS V14.01,2013-08-02 00:54:00,
2013-08-01 20:59:00,69.8,43.1,0.00,North,3,0.0,0.0,38,0.00,,---,0.43,VWS V14.01,2013-08-02 00:59:00,
2013-08-01 21:05:00,69.8,43.1,0.00,North,3,0.0,0.0,38,0.04,,---,0.47,VWS V14.01,2013-08-02 01:05:00,
2013-08-01 21:10:00,69.8,43.1,0.00,North,9,0.0,0.0,38,0.04,,---,0.47,VWS V14.01,2013-08-02 01:10:00,
2013-08-01 21:17:00,69.8,43.1,0.00,North,10,0.0,0.0,38,0.04,,---,0.47,VWS V14.01,2013-08-02 01:17:00,
2013-08-01 21:23:00,69.8,43.1,0.00,North,9,0.0,0.0,38,0.04,,---,0.47,VWS V14.01,2013-08-02 01:23:00,
2013-08-01 21:29:00,69.8,43.1,0.00,North,10,0.0,0.0,38,0.04,,---,0.47,VWS V14.01,2013-08-02 01:29:00,
2013-08-01 21:35:00,69.8,43.1,0.00,NE,35,0.0,0.0,38,0.04,,---,0.47,VWS V14.01,2013-08-02 01:35:00,
2013-08-01 21:40:00,69.8,43.1,0.00,NE,35,0.0,0.0,38,0.04,,---,0.47,VWS V14.01,2013-08-02 01:40:00,
2013-08-01 21:48:00,69.8,43.1,0.00,East,79,0.0,0.0,38,0.04,,---,0.47,VWS V14.01,2013-08-02 01:48:00,
2013-08-01 21:54:00,69.8,43.1,0.00,ESE,113,0.0,0.0,38,0.04,,---,0.47,VWS V14.01,2013-08-02 01:54:00,
2013-08-01 22:00:00,69.8,43.1,0.00,ESE,113,0.0,0.0,38,0.04,,---,0.47,VWS V14.01,2013-08-02 02:00:00,
2013-08-01 22:05:00,69.8,43.1,0.00,ESE,113,0.0,0.0,38,0.00,,---,0.47,VWS V14.01,2013-08-02 02:05:00,
2013-08-01 22:12:00,69.8,43.1,0.00,ESE,113,0.0,0.0,38,0.00,,---,0.47,VWS V14.01,2013-08-02 02:12:00,
2013-08-01 22:18:00,69.8,43.1,0.00,ESE,113,0.0,0.0,38,0.00,,---,0.47,VWS V14.01,2013-08-02 02:18:00,
2013-08-01 22:23:00,69.8,43.1,0.00,ESE,113,0.0,0.0,38,0.00,,---,0.47,VWS V14.01,2013-08-02 02:23:00,
2013-08-01 22:29:00,69.8,43.1,0.00,ESE,113,0.0,0.0,38,0.00,,---,0.47,VWS V14.01,2013-08-02 02:29:00,
2013-08-01 22:35:00,69.8,43.1,0.00,ESE,113,0.0,0.0,38,0.00,,---,0.47,VWS V14.01,2013-08-02 02:35:00,
2013-08-01 22:40:00,69.8,43.1,0.00,ESE,113,0.0,0.0,38,0.00,,---,0.47,VWS V14.01,2013-08-02 02:40:00,
2013-08-01 22:46:00,69.8,43.1,0.00,ESE,113,0.0,0.0,38,0.00,,---,0.47,VWS V14.01,2013-08-02 02:46:00,
2013-08-01 22:51:00,69.8,43.1,0.00,ESE,113,0.0,0.0,38,0.00,,---,0.47,VWS V14.01,2013-08-02 02:51:00,
2013-08-01 22:57:00,69.8,43.1,0.00,ESE,113,0.0,0.0,38,0.00,,---,0.47,VWS V14.01,2013-08-02 02:57:00,
2013-08-01 23:04:00,69.8,43.1,0.00,ESE,113,0.0,0.0,38,0.00,,---,0.47,VWS V14.01,2013-08-02 03:04:00,
2013-08-01 23:12:00,69.8,43.1,0.00,ESE,113,0.0,0.0,38,0.00,,---,0.47,VWS V14.01,2013-08-02 03:12:00,
2013-08-01 23:19:00,69.8,43.1,0.00,ESE,113,0.0,0.0,38,0.00,,---,0.47,VWS V14.01,2013-08-02 03:19:00,
2013-08-01 23:25:00,69.8,43.1,0.00,ESE,113,0.0,0.0,38,0.00,,---,0.47,VWS V14.01,2013-08-02 03:25:00,
2013-08-01 23:32:00,69.8,43.1,0.00,ESE,113,0.0,0.0,38,0.00,,---,0.47,VWS V14.01,2013-08-02 03:32:00,
2013-08-01 23:38:00,69.8,43.1,0.00,ESE,113,0.0,0.0,38,0.00,,---,0.47,VWS V14.01,2013-08-02 03:38:00,
2013-08-01 23:43:00,69.8,43.1,0.00,ESE,113,0.0,0.0,38,0.00,,---,0.47,VWS V14.01,2013-08-02 03:43:00,
2013-08-01 23:49:00,69.8,43.1,0.00,ESE,113,0.0,0.0,38,0.00,,---,0.47,VWS V14.01,2013-08-02 03:49:00,
2013-08-01 23:55:00,69.8,43.1,0.00,ESE,113,0.0,0.0,38,0.00,,---,0.47,VWS V14.01,2013-08-02 03:55:00,